TimeEDT,TemperatureF,Dew PointF,Humidity,Sea Level PressureIn,VisibilityMPH,Wind Direction,Wind SpeedMPH,Gust SpeedMPH,PrecipitationIn,Events,Conditions,WindDirDegrees,DateUTC
12:15 AM,75.2,73.4,94,30.06,10.0,Calm,Calm,-,N/A,,Clear,0,2013-08-24 04:15:00
12:35 AM,75.2,73.4,94,30.06,10.0,Calm,Calm,-,N/A,,Clear,0,2013-08-24 04:35:00
12:55 AM,75.2,73.4,94,30.06,10.0,Calm,Calm,-,N/A,,Clear,0,2013-08-24 04:55:00
1:15 AM,75.2,73.4,94,30.06,10.0,Calm,Calm,-,N/A,,Clear,0,2013-08-24 05:15:00
1:35 AM,75.2,73.4,94,30.05,10.0,Calm,Calm,-,N/A,,Clear,0,2013-08-24 05:35:00
1:55 AM,73.4,73.4,100,30.04,10.0,South,3.5,-,N/A,,Clear,190,2013-08-24 05:55:00
2:15 AM,73.4,73.4,100,30.04,10.0,Calm,Calm,-,N/A,,Clear,0,2013-08-24 06:15:00
2:35 AM,73.4,73.4,100,30.04,10.0,Calm,Calm,-,N/A,,Clear,0,2013-08-24 06:35:00
2:55 AM,73.4,73.4,100,30.04,10.0,Calm,Calm,-,N/A,,Clear,0,2013-08-24 06:55:00
3:15 AM,73.4,73.4,100,30.04,10.0,Calm,Calm,-,N/A,,Clear,0,2013-08-24 07:15:00
3:35 AM,73.4,73.4,100,30.04,10.0,Calm,Calm,-,N/A,,Clear,0,2013-08-24 07:35:00
3:55 AM,73.4,73.4,100,30.04,10.0,Calm,Calm,-,N/A,,Clear,0,2013-08-24 07:55:00
4:15 AM,73.4,73.4,100,30.05,10.0,Calm,Calm,-,N/A,,Clear,0,2013-08-24 08:15:00
4:35 AM,73.4,73.4,100,30.05,10.0,Calm,Calm,-,N/A,,Clear,0,2013-08-24 08:35:00
4:55 AM,73.4,73.4,100,30.06,10.0,Calm,Calm,-,N/A,,Clear,0,2013-08-24 08:55:00
5:15 AM,73.4,73.4,100,30.06,10.0,Calm,Calm,-,N/A,,Clear,0,2013-08-24 09:15:00
5:35 AM,73.4,73.4,100,30.07,10.0,North,4.6,-,N/A,,Clear,10,2013-08-24 09:35:00
5:55 AM,73.4,73.4,100,30.08,10.0,Calm,Calm,-,N/A,,Clear,0,2013-08-24 09:55:00
6:15 AM,73.4,73.4,100,30.08,10.0,NNW,4.6,-,N/A,,Clear,340,2013-08-24 10:15:00
6:35 AM,73.4,73.4,100,30.08,10.0,NNW,4.6,-,N/A,,Clear,340,2013-08-24 10:35:00
6:55 AM,73.4,73.4,100,30.08,10.0,North,5.8,-,N/A,,Clear,350,2013-08-24 10:55:00
7:15 AM,73.4,73.4,100,30.08,10.0,Calm,Calm,-,N/A,,Clear,0,2013-08-24 11:15:00
7:35 AM,73.4,73.4,100,30.09,10.0,Calm,Calm,-,N/A,,Clear,0,2013-08-24 11:35:00
7:55 AM,75.2,73.4,94,30.09,10.0,Calm,Calm,-,N/A,,Clear,0,2013-08-24 11:55:00
8:15 AM,75.2,73.4,94,30.09,10.0,Calm,Calm,-,N/A,,Clear,0,2013-08-24 12:15:00
8:35 AM,75.2,73.4,94,30.10,10.0,Calm,Calm,-,N/A,,Clear,0,2013-08-24 12:35:00
8:55 AM,75.2,75.2,100,30.11,10.0,Calm,Calm,-,N/A,,Clear,0,2013-08-24 12:55:00
9:15 AM,78.8,75.2,89,30.12,10.0,North,3.5,-,N/A,,Clear,360,2013-08-24 13:15:00
9:35 AM,78.8,75.2,89,30.12,10.0,North,3.5,-,N/A,,Clear,350,2013-08-24 13:35:00
9:55 AM,78.8,75.2,89,30.12,10.0,North,3.5,-,N/A,,Clear,360,2013-08-24 13:55:00
10:15 AM,78.8,75.2,89,30.13,10.0,North,4.6,-,N/A,,Clear,360,2013-08-24 14:15:00
10:35 AM,80.6,75.2,84,30.13,10.0,North,8.1,-,N/A,,Clear,350,2013-08-24 14:35:00
10:55 AM,80.6,75.2,84,30.14,10.0,North,3.5,-,N/A,,Clear,10,2013-08-24 14:55:00
11:15 AM,80.6,75.2,84,30.14,10.0,North,4.6,-,N/A,,Clear,10,2013-08-24 15:15:00
11:35 AM,80.6,75.2,84,30.14,10.0,NNE,5.8,-,N/A,,Clear,20,2013-08-24 15:35:00
11:55 AM,82.4,75.2,79,30.14,10.0,North,6.9,-,N/A,,Clear,350,2013-08-24 15:55:00
12:15 PM,82.4,75.2,79,30.14,10.0,NNW,5.8,-,N/A,,Clear,340,2013-08-24 16:15:00
12:35 PM,82.4,75.2,79,30.13,10.0,North,4.6,-,N/A,,Clear,360,2013-08-24 16:35:00
12:55 PM,84.2,75.2,74,30.13,10.0,NE,3.5,-,N/A,,Clear,50,2013-08-24 16:55:00
1:15 PM,84.2,75.2,74,30.13,10.0,NE,6.9,-,N/A,,Clear,50,2013-08-24 17:15:00
1:35 PM,84.2,75.2,74,30.13,10.0,NE,4.6,-,N/A,,Clear,50,2013-08-24 17:35:00
1:55 PM,86.0,75.2,70,30.13,10.0,East,3.5,-,N/A,,Clear,90,2013-08-24 17:55:00
2:15 PM,87.8,75.2,66,30.12,10.0,East,4.6,-,N/A,,Clear,80,2013-08-24 18:15:00
2:35 PM,87.8,77.0,70,30.11,10.0,East,3.5,-,N/A,,Clear,80,2013-08-24 18:35:00
2:55 PM,87.8,75.2,66,30.11,10.0,Calm,Calm,-,N/A,,Scattered Clouds,0,2013-08-24 18:55:00
3:15 PM,87.8,75.2,66,30.10,10.0,East,3.5,-,N/A,,Scattered Clouds,100,2013-08-24 19:15:00
3:35 PM,87.8,77.0,70,30.10,10.0,SE,5.8,-,N/A,,Scattered Clouds,140,2013-08-24 19:35:00
3:55 PM,87.8,77.0,70,30.09,10.0,SE,4.6,-,N/A,,Clear,140,2013-08-24 19:55:00
4:15 PM,87.8,78.8,75,30.09,10.0,South,6.9,-,N/A,,Clear,180,2013-08-24 20:15:00
4:35 PM,87.8,78.8,75,30.09,10.0,SE,6.9,-,N/A,,Clear,130,2013-08-24 20:35:00
4:55 PM,87.8,78.8,75,30.09,10.0,SE,4.6,-,N/A,,Clear,130,2013-08-24 20:55:00
5:15 PM,82.4,73.4,74,30.10,10.0,NE,12.7,21.9,N/A,,Mostly Cloudy,50,2013-08-24 21:15:00
5:35 PM,75.2,73.4,94,30.12,5.0,East,6.9,-,N/A,,Overcast,100,2013-08-24 21:35:00
5:55 PM,73.4,73.4,100,30.11,10.0,SE,8.1,-,N/A,,Overcast,140,2013-08-24 21:55:00
6:15 PM,73.4,71.6,94,30.11,10.0,Calm,Calm,-,N/A,,Mostly Cloudy,0,2013-08-24 22:15:00
6:35 PM,73.4,71.6,94,30.11,10.0,ESE,3.5,-,N/A,,Clear,110,2013-08-24 22:35:00
6:55 PM,75.2,73.4,94,30.11,10.0,Calm,Calm,-,N/A,,Clear,0,2013-08-24 22:55:00
7:15 PM,75.2,73.4,94,30.12,10.0,Calm,Calm,-,N/A,,Scattered Clouds,0,2013-08-24 23:15:00
7:35 PM,75.2,73.4,94,30.12,10.0,ENE,4.6,-,N/A,,Scattered Clouds,60,2013-08-24 23:35:00
7:55 PM,75.2,73.4,94,30.13,10.0,Calm,Calm,-,N/A,,Scattered Clouds,0,2013-08-24 23:55:00
8:15 PM,75.2,73.4,94,30.13,10.0,Calm,Calm,-,N/A,,Mostly Cloudy,0,2013-08-25 00:15:00
8:35 PM,75.2,73.4,94,30.13,10.0,Calm,Calm,-,N/A,,Scattered Clouds,0,2013-08-25 00:35:00
8:55 PM,75.2,75.2,100,30.14,10.0,North,3.5,-,N/A,,Mostly Cloudy,10,2013-08-25 00:55:00
9:15 PM,75.2,75.2,100,30.14,10.0,Calm,Calm,-,N/A,,Mostly Cloudy,0,2013-08-25 01:15:00
9:35 PM,75.2,75.2,100,30.15,10.0,Calm,Calm,-,N/A,,Mostly Cloudy,0,2013-08-25 01:35:00
9:55 PM,77.0,75.2,94,30.16,10.0,Calm,Calm,-,N/A,,Mostly Cloudy,0,2013-08-25 01:55:00
10:15 PM,77.0,75.2,94,30.17,10.0,Calm,Calm,-,N/A,,Overcast,0,2013-08-25 02:15:00
10:35 PM,77.0,75.2,94,30.17,10.0,Calm,Calm,-,N/A,,Mostly Cloudy,0,2013-08-25 02:35:00
10:55 PM,77.0,75.2,94,30.18,7.0,NNE,3.5,-,N/A,,Scattered Clouds,30,2013-08-25 02:55:00
11:15 PM,77.0,75.2,94,30.18,5.0,NE,6.9,-,N/A,,Scattered Clouds,50,2013-08-25 03:15:00
11:35 PM,77.0,75.2,94,30.18,5.0,NE,4.6,-,N/A,,Clear,50,2013-08-25 03:35:00
11:55 PM,77.0,75.2,94,30.18,5.0,NE,5.8,-,N/A,,Clear,50,2013-08-25 03:55:00